[[{"header":{"parameterUnit":"m.s-1","parameterCategory":1,"la1":30.2991,"la2":30.254,"lo1":-89.0895,"lo2":-89.0444,"dy":0.0017,"dx":0.0017,"nx":28,"ny":28,"refTime":"2024-08-22T03:00:00:Z","depth":0,"parameterNumber":2,"parameterNumberName":"U-component_of_WINDS"},"data":[0,0,0,0,0,0,0,0,0,0,0,0,0,0,0,0,0,0,0,0,0,0,0,0,0,0,0,0,0,0,0,0,0,0,0,0,0,0,0,0,0,0,0,0,0,0,0,0,0,0,0,0,0,0,0,0,0,0,-5.0942,-5.0943,0,-5.1049,-5.105,-5.1051,-5.0911,-5.0906,-5.0901,-5.0896,-5.1007,-5.1015,-5.1022,0,0,0,0,0,0,0,0,0,0,0,0,0,-5.0615,-5.0622,-5.0941,-5.0943,-5.0944,-5.1049,-5.105,-5.1052,-5.0912,-5.0906,-5.0899,-5.0894,-5.1005,-5.1014,-5.1023,0,0,0,0,0,0,0,0,0,0,0,0,0,-5.0743,-5.0624,-5.0941,-5.0887,-5.0883,-5.1048,-5.105,-5.1052,-5.0913,-5.0906,-5.0898,-5.0891,-5.1002,-5.1013,-5.1024,-5.1249,0,0,-5.106,-5.1065,0,0,0,0,0,0,0,0,-5.0736,-5.0755,-5.0894,-5.0891,-5.0887,-5.0959,-5.0976,-5.1118,-5.0915,-5.0902,-5.0896,-5.0887,-5.0997,-5.1009,-5.1046,-5.1254,-5.1259,-5.1061,-5.1068,-5.1073,-5.1076,0,0,0,0,0,0,0,-5.0728,-5.075,-5.0984,-5.0896,-5.0892,-5.0857,-5.0867,-5.1002,-5.0991,-5.0902,-5.0892,-5.0907,-5.0994,-5.1035,-5.1047,-5.126,-5.106,-5.1071,-5.1078,-5.1082,-5.1656,-5.1664,0,0,0,0,0,0,-5.0725,-5.0744,-5.098,-5.0987,-5.0791,-5.0869,-5.088,-5.0943,-5.0989,-5.0989,-5.0913,-5.09,-5.1019,-5.1034,-5.1051,-5.1315,-5.1073,-5.1084,-5.109,-5.1648,-5.1658,-5.1667,0,0,0,0,0,0,-5.0719,-5.0747,-5.0976,-5.0863,-5.0889,-5.0883,-5.0955,-5.095,-5.099,-5.0998,-5.0995,-5.0957,-5.1014,-5.1035,-5.12,-5.1317,-5.1089,-5.1099,-5.1638,-5.1651,-5.1662,-5.1847,0,0,0,0,0,0,-5.071,-5.0746,-5.0831,-5.0866,-5.0896,-5.1124,-5.0962,-5.0957,-5.101,-5.0994,-5.1038,-5.1038,-5.1009,-5.1184,-5.1212,-5.1329,-5.1108,-5.1627,-5.1644,-5.1658,-5.183,-5.1864,-5.1893,0,0,0,0,0,-5.0699,-5.0879,-5.0836,-5.0866,-5.1002,-5.1131,-5.1148,-5.1111,-5.102,-5.1106,-5.111,-5.1037,-5.13,-5.1202,-5.1232,-5.1355,-5.162,-5.1639,-5.1657,-5.1816,-5.1857,-5.1892,0,0,0,0,0,0,-5.086,-5.0883,-5.0835,-5.1033,-5.1081,-5.1107,-5.1214,-5.1156,-5.1232,-5.1213,-5.1164,-5.1175,-5.1352,-5.137,-5.126,-5.1573,-5.1445,-5.147,-5.1555,-5.1595,-5.1625,-5.1617,-5.1118,0,0,0,0,0,-5.0918,-5.1021,-5.1036,-5.1208,-5.1235,-5.1221,-5.1276,-5.1243,-5.1291,-5.1311,-5.1327,-5.1377,-5.147,-5.1533,-5.162,-5.1832,-5.1839,-5.1931,-5.1963,-5.1988,-5.2011,-5.2123,-5.2164,-5.1728,-5.1728,-5.1728,0,0,-5.104,-5.1065,-5.1133,-5.1241,-5.1275,-5.1382,-5.1239,-5.1359,-5.1438,-5.1329,-5.1486,-5.15,-5.1552,-5.1742,-5.1826,-5.1762,-5.2133,-5.2012,-5.2033,-5.2041,-5.2147,-5.2188,-5.2225,-5.1741,-5.1738,-5.1736,0,0,-5.1316,-5.1347,-5.1493,-5.1529,-5.1581,-5.1571,-5.1606,-5.1641,-5.1646,-5.1803,-5.1723,-5.1816,-5.1979,-5.2019,-5.2061,-5.2352,-5.2287,-5.2382,-5.2546,-5.2656,-5.269,-5.272,-5.2823,-5.2861,-5.2404,-5.2405,-5.2405,0,-5.1461,-5.162,-5.1576,-5.1701,-5.1751,-5.1656,-5.1804,-5.1842,-5.192,-5.1957,-5.1883,-5.2085,-5.2113,-5.231,-5.2381,-5.2419,-5.2457,-5.2376,-5.2688,-5.2718,-5.2746,-5.2844,-5.2883,-5.2416,-5.2415,-5.2413,-5.2412,0,-5.1795,-5.1906,-5.2018,-5.2095,-5.2157,-5.2294,-5.227,-5.2339,-5.23,-5.2297,-5.2457,-5.2488,-5.2579,-5.2623,-5.2588,-5.2816,-5.2774,-5.2696,-5.2566,-5.2799,-5.289,-5.2927,-5.2432,-5.2428,-5.2425,-5.2422,0,0,-5.2176,-5.2227,-5.2269,-5.2302,-5.2352,-5.2437,-5.2569,-5.2657,-5.2716,-5.2774,-5.2882,-5.3022,-5.2949,-5.2997,-5.2964,-5.3061,-5.3289,-5.2971,-5.2971,-5.3028,-5.3541,-5.3599,-5.3643,-5.3246,-5.3253,-5.3258,-5.3536,0,-5.2452,-5.2679,-5.2643,-5.2863,-5.2964,-5.2876,-5.299,-5.3034,-5.3035,-5.3121,-5.3121,-5.322,-5.3118,-5.3146,-5.3237,-5.3242,-5.3391,-5.3221,-5.3346,-5.3351,-5.3335,-5.3691,-5.3753,-5.4014,-5.3572,-5.3578,-5.3582,0,-5.2804,-5.2874,-5.3104,-5.3137,-5.3178,-5.3282,-5.3359,-5.3443,-5.349,-5.3483,-5.3536,-5.3486,-5.3617,-5.3485,-5.3665,-5.355,-5.3599,-5.3609,-5.3618,-5.3628,-5.3481,-5.371,-5.4096,-5.4135,-5.3638,-5.3633,-5.3629,0,-5.3059,-5.3209,-5.3366,-5.3397,-5.3441,-5.3515,-5.3537,-5.3576,-5.3631,-5.3699,-5.3734,-5.3817,-5.3862,-5.3927,-5.39,-5.3807,-5.4085,-5.3951,-5.4083,-5.4084,-5.4145,-5.4142,-5.4544,-5.4178,-5.4178,-5.4177,-5.4176,0,-5.337,-5.3514,-5.348,-5.3577,-5.3735,-5.3692,-5.385,-5.3861,-5.3897,-5.3993,-5.3922,-5.4015,-5.3974,-5.4063,-5.4043,-5.4195,-5.4216,-5.4214,-5.4207,-5.422,-5.422,-5.4251,-5.4232,-5.4187,-5.4185,-5.4183,-5.4181,0,-5.368,-5.3664,-5.3828,-5.3856,-5.3866,-5.3981,-5.4004,-5.4094,-5.4089,-5.4212,-5.4239,-5.4231,-5.4333,-5.4312,-5.4425,-5.4411,-5.46,-5.4571,-5.4585,-5.4577,-5.471,-5.4698,-5.5146,-5.5202,-5.4801,-5.4805,-5.4808,0,-5.388,-5.3988,-5.4027,-5.4086,-5.4113,-5.421,-5.4265,-5.4227,-5.4288,-5.4349,-5.4432,-5.4527,-5.4601,-5.4768,-5.4772,-5.4857,-5.4829,-5.4981,-5.4842,-5.4851,-5.483,-5.4824,-5.4834,-5.5008,-5.5013,-5.5016,-5.5019,0,-5.4235,-5.4221,-5.4304,-5.4384,-5.4452,-5.4514,-5.4568,-5.4621,-5.4587,-5.4659,-5.4762,-5.4819,-5.4933,-5.5029,-5.5108,-5.5129,-5.507,-5.5063,-5.5098,-5.5112,-5.5115,-5.5114,-5.4659,-5.5053,-5.505,-5.5047,-5.5045,-5.5044,-5.4495,-5.4587,-5.4628,-5.4723,-5.4759,-5.4812,-5.4897,-5.4903,-5.4988,-5.5077,-5.5049,-5.5166,-5.521,-5.5309,-5.5341,-5.5431,-5.5375,-5.5426,-5.5438,-5.5451,-5.5467,-5.5102,-5.5446,-5.5445,-5.5444,-5.5443,-5.5442,0,-5.4846,-5.4868,-5.4955,-5.5033,-5.5107,-5.5044,-5.5101,-5.5167,-5.5271,-5.5316,-5.539,-5.5508,-5.56,-5.5611,-5.5698,-5.5768,-5.5743,-5.5792,-5.5786,-5.5792,-5.5513,-5.5474,-5.5811,-5.5811,-5.5811,-5.5811,-5.5811,-5.5811,-5.5037,-5.5189,-5.518,-5.5349,-5.537,-5.5483,-5.5521,-5.5569,-5.5605,-5.5739,-5.5815,-5.5822,-5.5854,-5.5942,-5.6023,-5.6024,-5.6059,-5.6119,-5.611,-5.5849,-5.5812,-5.5777,-5.5739,-5.6127,-5.6128,-5.6381,-5.6383,-5.6385]},{"header":{"parameterUnit":"m.s-1","parameterCategory":1,"la1":30.2991,"la2":30.254,"lo1":-89.0895,"lo2":-89.0444,"dy":0.0017,"dx":0.0017,"nx":28,"ny":28,"refTime":"2024-08-22T03:00:00:Z","depth":0,"parameterNumber":3,"parameterNumberName":"V-component_of_WINDS"},"data":[0,0,0,0,0,0,0,0,0,0,0,0,0,0,0,0,0,0,0,0,0,0,0,0,0,0,0,0,0,0,0,0,0,0,0,0,0,0,0,0,0,0,0,0,0,0,0,0,0,0,0,0,0,0,0,0,0,0,-2.4162,-2.4162,0,-2.4196,-2.4196,-2.4196,-2.4184,-2.4183,-2.4182,-2.4182,-2.4215,-2.4217,-2.4219,0,0,0,0,0,0,0,0,0,0,0,0,0,-2.4085,-2.4087,-2.4162,-2.4162,-2.4163,-2.4195,-2.4196,-2.4196,-2.4184,-2.4183,-2.4182,-2.4181,-2.4215,-2.4217,-2.4219,0,0,0,0,0,0,0,0,0,0,0,0,0,-2.4119,-2.4087,-2.4162,-2.4161,-2.4161,-2.4195,-2.4196,-2.4197,-2.4184,-2.4183,-2.4182,-2.4181,-2.4214,-2.4217,-2.4219,-2.4257,0,0,-2.4226,-2.4227,0,0,0,0,0,0,0,0,-2.4117,-2.4121,-2.416,-2.4161,-2.4161,-2.4184,-2.4181,-2.4217,-2.4185,-2.4175,-2.4182,-2.418,-2.4206,-2.4209,-2.4218,-2.4258,-2.426,-2.4227,-2.4228,-2.4229,-2.423,0,0,0,0,0,0,0,-2.4114,-2.412,-2.4175,-2.4161,-2.4161,-2.4158,-2.4161,-2.4188,-2.4197,-2.4176,-2.4175,-2.4179,-2.4206,-2.4216,-2.4218,-2.426,-2.4227,-2.4229,-2.423,-2.4231,-2.433,-2.4331,0,0,0,0,0,0,-2.4112,-2.4118,-2.4174,-2.4176,-2.4136,-2.416,-2.4164,-2.4178,-2.4196,-2.4198,-2.418,-2.4179,-2.4212,-2.4216,-2.422,-2.4263,-2.4229,-2.4231,-2.4233,-2.4329,-2.4331,-2.4332,0,0,0,0,0,0,-2.4111,-2.4117,-2.4173,-2.4147,-2.4154,-2.4163,-2.4179,-2.4179,-2.4189,-2.42,-2.4201,-2.4189,-2.4211,-2.4216,-2.4247,-2.4264,-2.4232,-2.4235,-2.4328,-2.433,-2.4331,-2.4351,0,0,0,0,0,0,-2.4108,-2.4117,-2.4132,-2.4147,-2.4155,-2.42,-2.418,-2.4181,-2.4193,-2.4191,-2.4208,-2.4209,-2.4211,-2.4243,-2.4249,-2.4267,-2.4236,-2.4326,-2.4329,-2.4331,-2.4349,-2.4353,-2.4357,0,0,0,0,0,-2.4106,-2.4136,-2.4133,-2.4139,-2.4174,-2.4201,-2.4206,-2.4207,-2.4195,-2.4209,-2.4216,-2.4209,-2.4261,-2.4247,-2.4253,-2.4272,-2.4325,-2.4328,-2.433,-2.4347,-2.4353,-2.4357,0,0,0,0,0,0,-2.4123,-2.4139,-2.4134,-2.4171,-2.4185,-2.4199,-2.4218,-2.4213,-2.423,-2.4228,-2.4228,-2.4232,-2.4263,-2.4271,-2.4254,-2.4308,-2.4291,-2.4295,-2.4302,-2.4307,-2.4311,-2.4308,-2.4238,0,0,0,0,0,-2.4131,-2.4152,-2.4165,-2.4196,-2.4203,-2.4209,-2.4221,-2.4221,-2.4235,-2.4241,-2.4249,-2.4263,-2.4282,-2.4295,-2.4314,-2.435,-2.4352,-2.4366,-2.437,-2.4373,-2.4376,-2.4394,-2.44,-2.4341,-2.4341,-2.4341,0,0,-2.4148,-2.4159,-2.4173,-2.42,-2.421,-2.4231,-2.4214,-2.4238,-2.4253,-2.4244,-2.4273,-2.428,-2.4295,-2.4328,-2.4343,-2.4335,-2.4393,-2.4377,-2.4379,-2.4381,-2.4397,-2.4403,-2.4408,-2.4343,-2.4342,-2.4342,0,0,-2.4189,-2.4201,-2.4227,-2.4237,-2.4253,-2.4257,-2.4263,-2.4278,-2.4282,-2.4311,-2.4304,-2.4322,-2.4356,-2.4366,-2.4376,-2.4419,-2.4413,-2.4425,-2.4446,-2.4463,-2.4468,-2.4472,-2.4486,-2.4491,-2.4429,-2.4429,-2.4429,0,-2.4208,-2.424,-2.4241,-2.4264,-2.4276,-2.4268,-2.4294,-2.4304,-2.4325,-2.4333,-2.4324,-2.4365,-2.4375,-2.4409,-2.4419,-2.4428,-2.4434,-2.4423,-2.4467,-2.4471,-2.4475,-2.4488,-2.4494,-2.443,-2.443,-2.443,-2.443,0,-2.4262,-2.4284,-2.4303,-2.4323,-2.4336,-2.4361,-2.4364,-2.4378,-2.4376,-2.438,-2.4408,-2.442,-2.444,-2.4448,-2.4447,-2.4481,-2.4476,-2.4467,-2.445,-2.4482,-2.4494,-2.4499,-2.4432,-2.4431,-2.4431,-2.4431,0,0,-2.4315,-2.4334,-2.4341,-2.4349,-2.4365,-2.4382,-2.4405,-2.4424,-2.4435,-2.445,-2.4468,-2.4496,-2.4488,-2.4499,-2.4498,-2.4513,-2.4544,-2.4503,-2.4503,-2.4508,-2.4581,-2.4586,-2.4592,-2.454,-2.4541,-2.4542,-2.4579,0,-2.4357,-2.4398,-2.4398,-2.4436,-2.4455,-2.4447,-2.4467,-2.4479,-2.4483,-2.4499,-2.4504,-2.4523,-2.4511,-2.4517,-2.4532,-2.4537,-2.4559,-2.4535,-2.4556,-2.4557,-2.4552,-2.4599,-2.4605,-2.464,-2.4584,-2.4585,-2.4586,0,-2.441,-2.4426,-2.4465,-2.4476,-2.4484,-2.4502,-2.4519,-2.4535,-2.4547,-2.4549,-2.456,-2.4557,-2.458,-2.4563,-2.4593,-2.4577,-2.4585,-2.4589,-2.459,-2.4592,-2.4572,-2.46,-2.4651,-2.4655,-2.4593,-2.4593,-2.4592,0,-2.4443,-2.4474,-2.4501,-2.4508,-2.4522,-2.4535,-2.4541,-2.4553,-2.4563,-2.4578,-2.4584,-2.4601,-2.461,-2.4623,-2.4624,-2.4612,-2.4653,-2.4637,-2.4654,-2.4654,-2.4663,-2.4662,-2.4714,-2.4671,-2.467,-2.467,-2.467,0,-2.4488,-2.4512,-2.4515,-2.4532,-2.4557,-2.4557,-2.4582,-2.4588,-2.4598,-2.4614,-2.4609,-2.4624,-2.4625,-2.4641,-2.4642,-2.4665,-2.467,-2.4671,-2.4671,-2.4671,-2.467,-2.4676,-2.4673,-2.4672,-2.4671,-2.4671,-2.4671,0,-2.4529,-2.4533,-2.4561,-2.4572,-2.4575,-2.4593,-2.4602,-2.4617,-2.462,-2.4641,-2.4646,-2.4651,-2.4669,-2.4671,-2.4692,-2.4693,-2.472,-2.4719,-2.4716,-2.4715,-2.4732,-2.473,-2.4789,-2.4795,-2.4749,-2.4749,-2.4749,0,-2.4557,-2.4575,-2.4588,-2.4598,-2.4605,-2.4622,-2.4633,-2.4633,-2.4644,-2.4658,-2.4671,-2.4688,-2.4702,-2.4731,-2.4736,-2.4751,-2.4749,-2.4768,-2.4751,-2.475,-2.4747,-2.4745,-2.4746,-2.4771,-2.4772,-2.4772,-2.4772,0,-2.4606,-2.4606,-2.4622,-2.4637,-2.465,-2.4662,-2.4674,-2.4682,-2.4684,-2.4696,-2.4714,-2.4725,-2.4745,-2.4762,-2.4777,-2.4783,-2.4777,-2.4778,-2.4782,-2.4782,-2.4779,-2.4779,-2.4724,-2.4776,-2.4776,-2.4776,-2.4775,-2.4775,-2.464,-2.4655,-2.4665,-2.4682,-2.469,-2.4701,-2.4715,-2.4719,-2.4734,-2.4751,-2.475,-2.4769,-2.4779,-2.4799,-2.4806,-2.482,-2.4814,-2.4821,-2.4822,-2.4824,-2.4824,-2.4778,-2.4823,-2.4823,-2.4823,-2.4823,-2.4823,0,-2.4687,-2.4693,-2.4708,-2.4724,-2.4737,-2.4731,-2.4743,-2.4753,-2.477,-2.478,-2.4793,-2.4813,-2.4829,-2.4834,-2.4849,-2.486,-2.4857,-2.4863,-2.4862,-2.4863,-2.483,-2.4824,-2.4865,-2.4865,-2.4865,-2.4865,-2.4865,-2.4865,-2.4713,-2.4737,-2.4738,-2.4765,-2.4771,-2.4789,-2.4796,-2.4805,-2.4813,-2.4835,-2.4848,-2.4851,-2.4859,-2.4874,-2.4888,-2.4889,-2.4894,-2.4901,-2.4901,-2.487,-2.4866,-2.4862,-2.4856,-2.4903,-2.4903,-2.4933,-2.4933,-2.4933]}]]